Sitka, AK

10:23 PM AKDT on October 18, 2017 (GMT -0800)
Sitka Rocky Gutierrez

Weather History for PASI - November, 2013

Change the Weather History Date:

Monday, November 4, 2013

  Actual Average Record
Temperature  
Mean Temperature 45 °F -  
Max Temperature 46 °F 46 °F 55 °F (1949)
Min Temperature 44 °F 36 °F 23 °F (1955)
Degree Days  
Heating Degree Days 20    
Moisture  
Dew Point 36 °F    
Average Humidity 70    
Maximum Humidity 82    
Minimum Humidity 56    
Precipitation  
Precipitation 0.17 in - - ()
Sea Level Pressure  
Sea Level Pressure 29.61 in    
Wind  
Wind Speed 20 mph (ESE)    
Max Wind Speed 113 mph    
Max Gust Speed 37 mph    
Visibility 9 miles    
Events Rain    
Averages and records for this station are not official NWS values.
T = Trace of Precipitation, MM = Missing Value Source: NWS Daily Summary

Daily Weather History Graph

Daily Weather History Graph

Search for Another Location

Airport or City:

Trip Planner

Search our weather history database for the weather conditions in past years. The results will help you decide how hot, cold, wet, or windy it might be!

Date:

Astronomy

Nov. 04, 2013 Rise Set
Actual Time 7:19 AM AKST 4:09 PM AKST
Civil Twilight 6:38 AM AKST 4:50 PM AKST
Nautical Twilight 5:52 AM AKST 5:36 PM AKST
Astronomical Twilight 5:07 AM AKST 6:21 PM AKST
Moon 8:53 AM AKST (11/4) 5:04 PM AKST (11/4)
Length of Visible Light 10h 12m
Length of Day
8h 49m
New Moon, 2% of the Moon is Illuminated
Nov 4
New Moon
Nov 9
First Quarter
Nov 17
Full
Nov 25
Last Quarter
Dec 2
New

Hourly Weather History & Observations

Time (AKST) Temp. Windchill Dew Point Humidity Pressure Visibility Wind Dir Wind Speed Gust Speed Precip Events Conditions
12:53 AM 46.0 °F 38.0 °F 30.9 °F 56% 29.75 in 10.0 mi ESE 21.9 mph 28.8 mph N/A   Clear
1:53 AM 46.0 °F 38.3 °F 30.9 °F 56% 29.69 in 10.0 mi East 20.7 mph 28.8 mph N/A   Scattered Clouds
3:53 AM 45.0 °F 37.1 °F 32.0 °F 60% 29.64 in 10.0 mi ESE 19.6 mph - 0.00 in   Overcast
4:53 AM 46.0 °F 38.3 °F 33.1 °F 61% 29.60 in 10.0 mi East 20.7 mph 29.9 mph 0.00 in Rain Light Rain
5:53 AM 45.0 °F 36.9 °F 35.1 °F 68% 29.56 in 10.0 mi ESE 20.7 mph 28.8 mph 0.01 in Rain Light Rain
6:53 AM 45.0 °F 37.6 °F 34.0 °F 65% 29.53 in 10.0 mi ESE 17.3 mph 28.8 mph 0.02 in Rain Light Rain
7:53 AM 46.0 °F 37.4 °F 33.1 °F 61% 29.51 in 10.0 mi ESE 25.3 mph 36.8 mph 0.00 in   Overcast
8:53 AM 46.0 °F 37.4 °F 33.1 °F 61% 29.52 in 10.0 mi ESE 25.3 mph 34.5 mph N/A   Overcast
9:53 AM 46.0 °F 38.0 °F 33.1 °F 61% 29.56 in 10.0 mi East 21.9 mph 32.2 mph 0.00 in Rain Light Rain
10:53 AM 46.0 °F 39.0 °F 34.0 °F 63% 29.58 in 10.0 mi ESE 17.3 mph 25.3 mph 0.00 in   Overcast
11:25 AM 46.9 °F - 35.1 °F 63% 29.59 in 10.0 mi ESE 15.0 mph - N/A   Overcast
11:53 AM 46.9 °F - 36.0 °F 66% 29.59 in 9.0 mi ESE 16.1 mph 23.0 mph 0.00 in Rain Light Rain
12:53 PM 46.9 °F - 37.9 °F 71% 29.61 in 7.0 mi SE 9.2 mph - 0.01 in Rain Light Rain
1:53 PM 46.0 °F 40.6 °F 39.0 °F 76% 29.61 in 7.0 mi East 11.5 mph - 0.02 in Rain Light Rain
2:16 PM 46.0 °F 41.0 °F 39.9 °F 79% 29.61 in 7.0 mi East 10.4 mph - 0.00 in Rain Light Rain
2:31 PM 46.0 °F 41.4 °F 39.9 °F 79% 29.61 in 5.0 mi East 9.2 mph - 0.02 in Rain Rain
2:53 PM 46.0 °F 40.6 °F 39.9 °F 79% 29.62 in 10.0 mi East 11.5 mph - 0.02 in   Overcast
5:53 PM 44.6 °F - 39.2 °F 81% 29.62 in 10.0 mi East 112.8 mph - N/A   Overcast
6:53 PM 46.4 °F 41.5 °F 39.2 °F 76% 29.62 in 10.0 mi ESE 10.4 mph - N/A   Overcast
7:35 PM 44.6 °F 39.7 °F 39.2 °F 81% 29.64 in 10.0 mi SE 9.2 mph - N/A Rain Light Rain
8:53 PM 44.6 °F 38.8 °F 37.4 °F 76% 29.64 in 4.0 mi ESE 11.5 mph - N/A Rain Rain
9:52 PM 44.6 °F 39.2 °F 39.2 °F 81% 29.64 in 10.0 mi East 10.4 mph - N/A Rain Light Rain
10:53 PM 45.0 °F 39.3 °F 39.0 °F 80% 29.65 in 5.0 mi ESE 11.5 mph - 0.05 in Rain Rain
11:15 PM 44.1 °F 38.1 °F 39.0 °F 82% 29.63 in 10.0 mi East 11.5 mph - 0.02 in Rain Light Rain
11:53 PM 45.0 °F 37.6 °F 39.0 °F 80% 29.65 in 5.0 mi ESE 17.3 mph - 0.04 in Rain Light Rain